Hourly Data Report for June 09, 2017

FISHER BRANCH (AUT)
MANITOBA

51°05'00.100" N
97°33'16.200" W
253.00 m
50309J6
71442
WSZ

Download Data

Hourly Data (June 2017)
Hourly Data Report for June 9, 2017
TIME
LST
Temp Definition
°C
Dew Point Definition
°C
Rel Hum Definition
%
Precip. Amount Definition
mm

Wind Dir Definition
10's deg

Wind Spd Definition
km/h
Visibility Definition
km
Stn Press Definition
kPa
Hmdx Definition


Wind Chill Definition


Weather Definition


00:00 10.9 7.1 78 0.0 36 3   98.20     LegendNANA
01:00 9.7 7.3 85 0.0 2 3   98.15     LegendNANA
02:00 9.4 7.3 86 0.0 0 1   98.11     LegendNANA
03:00 9.1 7.0 87 0.0 0 1   98.07     LegendNANA
04:00 8.6 7.1 90 0.0 12 2   98.02     LegendNANA
05:00 8.9 7.4 91 0.0 2 1   97.99     LegendNANA
06:00 14.3 10.2 76 0.0 8 3   97.96     LegendNANA
07:00 17.9 11.2 65 0.0 12 8   97.89     LegendNANA
08:00 20.8 10.7 52 0.0 16 10   97.80     LegendNANA
09:00 23.4 10.6 44 0.0 13 10   97.72 25   LegendNANA
10:00 25.4 8.6 34 0.0 16 12   97.68 26   LegendNANA
11:00 26.1 8.5 33 0.0 17 12   97.61 27   LegendNANA
12:00 26.5 6.6 28 0.0 15 18   97.52 26   LegendNANA
13:00 27.0 7.4 29 0.0 14 18   97.43 27   LegendNANA
14:00 25.9 8.8 34 0.0 14 21   97.23 27   LegendNANA
15:00 25.9 7.4 31 0.0 16 23   97.20 26   LegendNANA
16:00 25.0 6.8 31 0.0 16 17   97.13 25   LegendNANA
17:00 23.7 8.8 39 0.0 14 13   97.08     LegendNANA
18:00 23.1 10.7 46 0.0 17 13   97.00 25   LegendNANA
19:00 22.0 11.7 52 0.0 18 21   96.95     LegendNANA
20:00 19.7 12.7 64 0.0 16 13   96.85     LegendNANA
21:00 18.6 13.2 71 0.0 15 14   96.83     LegendNANA
22:00 16.2 13.0 81 0.0 14 11   96.74     LegendNANA
23:00 16.6 13.3 81 0.0 13 13   96.58     LegendNANA

Notes on Data Quality.

Legend

  • E = Estimated
  • M = Missing
  • NA = Not Available*
  • [empty] = Indicates an unobserved value
Date modified: